Regional Weather Roundup
Issued by NWS

Home | Current Version | Previous Version | Text Only | Print | Product List | Glossary On
Versions: 1 2 3 4 5 6 7 8 9 10 11 12 13 14 15 16 17 18 19 20 21 22 23 24 25 26 27 28 29 30 31 32 33 34 35 36 37 38 39 40 41 42 43 44 45 46 47 48 49 50
000
ASUS44 KEWX 232003
RWRTX
SOUTH TEXAS REGIONAL WEATHER ROUNDUP
NATIONAL WEATHER SERVICE AUSTIN/SAN ANTONIO TX
300 PM CDT SUN APR 23 2017

NOTE: "FAIR" INDICATED FEW OR NO CLOUDS BELOW 12,000 FEET WITH NO
SIGNIFICANT WEATHER AND/OR OBSTRUCTIONS TO VISIBILITY.

* - THESE STATIONS ARE NOT NWS OR FAA STATIONS...AND ARE NOT SUBJECT
    TO NWS AND FAA QUALITY CONTROL.

TXZ171-172-183>190-232100-
TEXAS HILL COUNTRY AND EDWARDS PLATEAU

CITY           SKY/WX    TMP DP  RH WIND       PRES   REMARKS
JUNCTION       SUNNY     73  28  18 VRB3      30.12F
*LLANO         SUNNY     72  37  28 N3G16     30.15F
BURNET         SUNNY     72  37  28 N13       30.12F
*HORSESHOE BAY SUNNY     72  38  28 NW8G16    30.11F
*KERRVILLE     SUNNY     72  39  30 NW10      30.12F
*FREDERICKSBRG SUNNY     69  35  28 N12       30.13F
*ROCKSPRINGS   SUNNY     66  36  32 N9        30.17F
*BOERNE STAGE  SUNNY     68  36  30 N7        30.12F
*CASTROVILLE   SUNNY     76  36  23 CALM      30.10F
HONDO          SUNNY     76  39  26 N8        30.11F
*UVALDE        SUNNY     71  41  33 CALM      30.13F
DEL RIO        NOT AVBL
LAUGHLIN AFB   SUNNY     72  43  35 CALM      30.11F
CARRIZO SPRGS  SUNNY     72  37  28 N3        30.12F
*EAGLE PASS    NOT AVBL
$$

TXZ173-191>194-202-209-217>225-228-232100-
CENTRAL AND SOUTH CENTRAL TEXAS

CITY           SKY/WX    TMP DP  RH WIND       PRES   REMARKS
GEORGETOWN     SUNNY     73  39  29 N9G17     30.10F
AUSTIN/BERGSTM SUNNY     75  40  28 N13       30.08F
AUSTIN/MABRY   SUNNY     75  42  30 N9G17     30.10F
*AUSTIN/EXEC   SUNNY     72  41  33 NW9G16    30.09F
*LAGO VISTA    SUNNY     72  39  30 N10       30.11F
SAN MARCOS     SUNNY     75  43  31 N9        30.10F
NEW BRAUNFELS  SUNNY     76  40  27 NW14      30.08F
RANDOLPH AFB   MOSUNNY   73  39  29 NW10      30.09F
PT SAN ANTONIO SUNNY     75  40  28 N9        30.07F
SAN ANTONIO    SUNNY     74  38  27 N9        30.09F
STINSON FIELD  SUNNY     76  38  25 VRB6G17   30.07F
*LA GRANGE     SUNNY     72  47  40 N13       30.07F
*GIDDINGS      SUNNY     70  41  34 N6        30.09F
*GONZALES      SUNNY     74  47  37 MISG      30.08F
$$

TXZ163>164-176>182-195>201-210>213-226-227-235-232100-
SOUTHEAST TEXAS

CITY           SKY/WX    TMP DP  RH WIND       PRES   REMARKS
COLLEGE STN    SUNNY     72  43  35 N18G24    30.07F
*BRYAN         SUNNY     70  44  38 N10G20    30.08F
*CALDWELL      NOT AVBL
*CROCKETT      SUNNY     68  46  45 N9G17     30.07F
*BRENHAM       SUNNY     72  44  37 N9        30.07F
HUNTSVILLE     SUNNY     69  43  38 N9G17     30.05F
CONROE         PTSUNNY   69  47  45 NW12G18   30.04F
HOUSTON BUSH   MOSUNNY   71  48  43 VRB7      30.03F
HOUSTON HOBBY  MOSUNNY   72  47  40 NW16      30.02F
*HOUSTON SW AP SUNNY     70  50  48 W7        30.04F
PEARLAND       SUNNY     73  44  35 N12       30.04F
HOUSTON HOOKS  SUNNY     69  48  47 NW9G17    30.04F
ELLINGTON FLD  MOSUNNY   70  46  43 N9        30.04F
SUGAR LAND     SUNNY     71  49  45 N15G23    30.03F
*HOUSTON EXEC  SUNNY     68  48  49 N12G20    30.06F
*CLEVELAND MUN PTSUNNY   70  49  48 N9        30.04F
*WHARTON       SUNNY     71  45  38 NW14G24   30.06F
*COLUMBUS      FAIR      70  42  36 NW17G23   30.07F
*EAGLE LAKE    CLEAR     72  48  42 N10G20    30.06F
$$

TXZ214>216-236>238-232100-
THE UPPER TEXAS COAST

CITY           SKY/WX    TMP DP  RH WIND       PRES   REMARKS
*ORANGE        PTSUNNY   69  51  51 NW10G20   30.01F
PORT ARTHUR    MOSUNNY   73  49  42 N14       29.99F
GALVESTON      SUNNY     73  51  46 N15G22    30.03F
ANGLETON       SUNNY     72  49  44 NW12G21   30.03F
*BAY CITY      SUNNY     72  49  45 NW12      30.04F
PALACIOS       SUNNY     74  44  34 NW24      30.04F
$$

TXZ229>234-239>247-232100-
TEXAS COASTAL BEND AND RIO GRANDE PLAINS

CITY           SKY/WX    TMP DP  RH WIND       PRES   REMARKS
VICTORIA       SUNNY     76  45  33 N12G22    30.07F
*BEEVILLE      SUNNY     76  45  33 N12G17    30.08F
ROCKPORT       SUNNY     78  42  27 NW10G22   30.06F
*PORT ARANSAS  SUNNY     74  43  32 N9G20     30.06F
*PORT LAVACA   SUNNY     74  50  42 N16       30.06F
*INGLESIDE     SUNNY     78  42  28 N14G26    30.06F
CORPUS CHRISTI MOSUNNY   74  44  34 VRB6      30.07F
CORPUS NAS     SUNNY     78  46  32 NW13      30.06F
*ROBSTOWN      SUNNY     76  41  28 N13G22    30.08F
ALICE          SUNNY     76  38  25 N6        30.08F
KINGSVILLE NAS SUNNY     77  44  30 N12G20    30.08F
COTULLA        SUNNY     76  36  23 MISG      30.11F
*FAITH RANCH   SUNNY     77  37  24 N8G15     30.11F
LAREDO         SUNNY     76  42  29 N12       30.10F
$$

TXZ248>255-232100-
DEEP SOUTH TEXAS

CITY           SKY/WX    TMP DP  RH WIND       PRES   REMARKS
BROWNSVILLE    PTSUNNY   74  48  39 NW9       30.09F
PORT ISABEL    CLOUDY    73  47  39 N15       30.09F
*SOUTH PADRE   NOT AVBL
HARLINGEN      SUNNY     77  44  30 N15       30.08F
*HEBBRONVILLE  SUNNY     71  39  31 N3        30.11F
MCALLEN        SUNNY     79  43  27 N10G21    30.09F
*WESLACO       SUNNY     75  43  31 N12       30.08F
FALFURRIAS     SUNNY     75  37  25 N7        30.09F
EDINBURG       SUNNY     77  39  25 N9        30.09F
*ZAPATA        SUNNY     75  39  27 NW5       30.10F
$$

TXZ213>215-236>238-242>244-246-247-251-254-255-232100-
CMAN STATIONS

STATION/POSITION TIME  TEMP    WIND        PRES    WAVE
                       AIR SEA DIR/SP/G            HT/PER
                 (UTC) (F)     (DEG/KT/KT) (MB)    (FT/S)
SABINE PASS      1930   67 77  320/ 13/ 19 1017.3
SEA RIM ST PARK  1900   68     330/ 13/ 17 1016.9
NORTH JETTY/GLS  1930      74  340/ 11/ 18   N/A
EAGLE POINT      1930   67 74  340/  8/ 14 1016.7
MORGANS POINT    1930   66 75  300/ 10/ 13 1016.6
MISSION/ARANSAS  1900   69                 1019.0
PORT O`CONNOR    1930   68     310/ 11/ 16 1017.5
PORT ARANSAS     1900   69 77  330/ 15/ 18 1019.1
MALAQUITE BEACH  1930   69 77  340/ 12/ 18 1019.4
BAFFIN BAY       1930   70 75  310/ 11/ 15 1019.1
PORT ISABEL      1930   67 78  360/ 14/ 18 1019.3
$$

GMZ080-GMZ150>470-232100-
OFFSHORE BUOY REPORTS

STATION/POSITION TIME  TEMP    WIND        PRES    WAVE
                       AIR SEA DIR/SP/G            HT/PER
                 (UTC) (F)     (DEG/KT/KT) (MB)    (FT/S)
20 E GALVESTON   1850   63 75  310/ 14/ 19 1017.1    2/ 4
90 E PT ARANSAS  1850   65 76  340/ 16/ 19 1017.7    5/ 6
35 NE PT MANSFLD 1850   66     350/ 17/ 21 1018.7    7/ 8
200 E PT ISABEL  1850   71 79  340/ 17/ 19 1016.0    7/ 8
$$




USA.gov is the U.S. government's official web portal to all federal, state and local government web resources and services.